Regional Weather Roundup
Issued by NWS

Home | Current Version | Previous Version | Graphics & Text | Print | Product List | Glossary Off
Versions: 1 2 3 4 5 6 7 8 9 10 11 12 13 14 15 16 17 18 19 20 21 22 23 24 25 26 27 28 29 30 31 32 33 34 35 36 37 38 39 40 41 42 43 44 45 46 47 48 49 50

000
ASUS43 KFSD 040802
RWRSD

WEATHER ROUNDUP FOR SOUTH DAKOTA
NATIONAL WEATHER SERVICE SIOUX FALLS SD
300 AM CDT TUE AUG 04 2015

NOTE: "FAIR" INDICATES FEW OR NO CLOUDS BELOW 12,000 FEET WITH NO
SIGNIFICANT WEATHER AND/OR OBSTRUCTIONS TO VISIBILITY.


SDZ001>005-009-010-012>017-040900-
NORTHWEST AND NORTH CENTRAL SOUTH DAKOTA

CITY           SKY/WX    TMP DP  RH WIND       PRES   REMARKS
FAITH            N/A     66  53  63 SE10      29.95F
MOBRIDGE       CLEAR     62  56  80 E8        29.93F
$$

SDZ012>016-024>037-041>051-057-063-072>074-040900-
SOUTHWEST AND SOUTH CENTRAL SOUTH DAKOTA

CITY           SKY/WX    TMP DP  RH WIND       PRES   REMARKS
RAPID CTY ARPT CLOUDY    68  59  73 E12       29.95F
PIERRE         MOCLDY    65  56  72 E7        29.91F
CUSTER         CLOUDY    59  53  80 NE5       30.07F
ELLSWORTH AFB  CLOUDY    70  59  67 E8        29.94F
PHILIP         TSTM      68  63  84 NE9       29.91F
PINE RIDGE     MOCLDY    69  63  81 SW7       29.93S
WINNER         TSTM      69  63  81 SE15      29.91F
$$

SDZ004>011-016>023-039-040-040900-
NORTHEAST SOUTH DAKOTA

CITY           SKY/WX    TMP DP  RH WIND       PRES   REMARKS
ABERDEEN       CLEAR     57  51  80 CALM      29.96S
WATERTOWN      CLEAR     56  50  80 N3        29.98S
BROOKINGS      CLEAR     55  52  88 CALM      29.99F
$$

SDZ017-020-022-023-036>040-048>070-040900-
SOUTHEAST SOUTH DAKOTA

CITY           SKY/WX    TMP DP  RH WIND       PRES   REMARKS
SIOUX FALLS    CLEAR     58  56  93 NE5       29.96F
HURON          PTCLDY    61  55  81 SE7       29.94F
MITCHELL       CLEAR     59  57  93 E5        29.95F
YANKTON        PTCLDY    64  63  94 E7        29.94R
$$

ABBREVIATIONS USED IN REMARKS
   TC - TEMPERATURE IN CELSIUS
  WCI - WIND CHILL INDEX
   HX - HEAT INDEX
  VSB - VISIBILITY




USA.gov is the U.S. government's official web portal to all federal, state and local government web resources and services.